Wetterdaten: Dienstag, 11.06.2013
Datum Zeit Temperatur Luftfeuchte Luftdruck Regen Wind Richtung Richtung Taupunkt Windchill Windben
11.06.2013 00:00 9,9 C 96 % 1016,1 hPa 0,0 l/m 3,5 km/h (1 Bft) S 180 9,3 C 10,0 C 6,8 km/h (2 Bft)
11.06.2013 00:05 10,0 C 96 % 1016,1 hPa 0,0 l/m 3,1 km/h (1 Bft) S-SO 157 9,4 C 10,0 C 2,7 km/h (1 Bft)
11.06.2013 00:10 10,0 C 96 % 1016,1 hPa 0,0 l/m 2,6 km/h (1 Bft) S 180 9,4 C 10,0 C 2,1 km/h (1 Bft)
11.06.2013 00:15 10,0 C 96 % 1016,1 hPa 0,0 l/m 1,8 km/h (1 Bft) S 180 9,4 C 10,0 C 0,0 km/h (0 Bft)
11.06.2013 00:20 10,0 C 96 % 1016,3 hPa 0,0 l/m 1,9 km/h (1 Bft) SO 135 9,4 C 10,0 C 2,9 km/h (1 Bft)
11.06.2013 00:25 9,9 C 96 % 1016,3 hPa 0,7 l/m 1,4 km/h (1 Bft) NW 315 9,3 C 10,0 C 0,0 km/h (0 Bft)
11.06.2013 00:30 9,9 C 96 % 1016,3 hPa 0,0 l/m 1,3 km/h (1 Bft) S 180 9,3 C 10,0 C 0,0 km/h (0 Bft)
11.06.2013 00:35 9,9 C 96 % 1016,3 hPa 0,7 l/m 1,6 km/h (1 Bft) O-SO 112 9,3 C 9,9 C 3,2 km/h (1 Bft)
11.06.2013 00:40 9,9 C 96 % 1016,2 hPa 0,0 l/m 2,1 km/h (1 Bft) S 180 9,3 C 9,9 C 5,0 km/h (1 Bft)
11.06.2013 00:45 9,9 C 96 % 1016,2 hPa 0,0 l/m 3,4 km/h (1 Bft) S 180 9,3 C 9,9 C 6,3 km/h (2 Bft)
11.06.2013 00:50 9,8 C 96 % 1016,2 hPa 0,0 l/m 3,7 km/h (1 Bft) S-SO 157 9,2 C 9,8 C 8,9 km/h (2 Bft)
11.06.2013 00:55 9,8 C 96 % 1016,2 hPa 0,0 l/m 3,2 km/h (1 Bft) S 180 9,2 C 9,8 C 2,3 km/h (1 Bft)
11.06.2013 01:00 9,8 C 96 % 1016,4 hPa 0,0 l/m 3,2 km/h (1 Bft) S-SO 157 9,2 C 9,8 C 16,1 km/h (3 Bft)
11.06.2013 01:05 9,8 C 96 % 1016,4 hPa 0,7 l/m 2,3 km/h (1 Bft) S-SW 202 9,2 C 9,8 C 2,3 km/h (1 Bft)
11.06.2013 01:10 9,8 C 96 % 1016,4 hPa 0,0 l/m 2,4 km/h (1 Bft) S-SW 202 9,2 C 9,8 C 3,4 km/h (1 Bft)
11.06.2013 01:15 9,8 C 96 % 1016,4 hPa 0,0 l/m 3,5 km/h (1 Bft) S-SW 202 9,2 C 9,8 C 4,7 km/h (1 Bft)
11.06.2013 01:20 9,8 C 96 % 1016,4 hPa 0,0 l/m 3,5 km/h (1 Bft) S 180 9,2 C 9,8 C 1,9 km/h (1 Bft)
11.06.2013 01:25 9,8 C 96 % 1016,4 hPa 0,7 l/m 2,7 km/h (1 Bft) S-SO 157 9,2 C 9,8 C 5,5 km/h (1 Bft)
11.06.2013 01:30 9,8 C 96 % 1016,4 hPa 0,0 l/m 2,7 km/h (1 Bft) S-SO 157 9,2 C 9,8 C 9,0 km/h (2 Bft)
11.06.2013 01:35 9,8 C 96 % 1016,4 hPa 0,0 l/m 5,1 km/h (1 Bft) S 180 9,2 C 9,4 C 7,7 km/h (2 Bft)
11.06.2013 01:40 9,8 C 96 % 1016,6 hPa 0,0 l/m 4,7 km/h (1 Bft) O-SO 112 9,2 C 9,6 C 4,5 km/h (1 Bft)
11.06.2013 01:45 9,7 C 96 % 1016,6 hPa 0,0 l/m 3,1 km/h (1 Bft) S 180 9,1 C 9,7 C 2,6 km/h (1 Bft)
11.06.2013 01:50 9,7 C 96 % 1016,6 hPa 0,0 l/m 2,7 km/h (1 Bft) SO 135 9,1 C 9,7 C 4,3 km/h (1 Bft)
11.06.2013 01:55 9,7 C 96 % 1016,6 hPa 0,0 l/m 2,3 km/h (1 Bft) SO 135 9,1 C 9,7 C 1,9 km/h (1 Bft)
11.06.2013 02:00 9,7 C 96 % 1016,6 hPa 0,0 l/m 2,3 km/h (1 Bft) SO 135 9,1 C 9,7 C 2,9 km/h (1 Bft)
11.06.2013 02:05 9,7 C 96 % 1016,6 hPa 0,0 l/m 1,4 km/h (1 Bft) O 90 9,1 C 9,7 C 0,0 km/h (0 Bft)
11.06.2013 02:10 9,7 C 96 % 1016,6 hPa 0,7 l/m 0,6 km/h (0 Bft) O 90 9,1 C 9,7 C 0,0 km/h (0 Bft)
11.06.2013 02:15 9,7 C 96 % 1016,6 hPa 0,0 l/m 0,3 km/h (0 Bft) O-SO 112 9,1 C 9,7 C 1,8 km/h (1 Bft)
11.06.2013 02:20 9,7 C 96 % 1016,6 hPa 0,7 l/m 0,5 km/h (0 Bft) O-SO 112 9,1 C 9,7 C 2,7 km/h (1 Bft)
11.06.2013 02:25 9,7 C 96 % 1016,6 hPa 0,0 l/m 0,5 km/h (0 Bft) S 180 9,1 C 9,6 C 2,6 km/h (1 Bft)
11.06.2013 02:30 9,7 C 96 % 1016,6 hPa 0,0 l/m 0,3 km/h (0 Bft) O-SO 112 9,1 C 9,6 C 0,0 km/h (0 Bft)
11.06.2013 02:35 9,6 C 96 % 1016,6 hPa 0,7 l/m 0,8 km/h (0 Bft) S 180 9,0 C 9,6 C 3,2 km/h (1 Bft)
11.06.2013 02:40 9,6 C 96 % 1016,6 hPa 0,7 l/m 0,6 km/h (0 Bft) SO 135 9,0 C 9,6 C 2,6 km/h (1 Bft)
11.06.2013 02:45 9,6 C 96 % 1016,6 hPa 0,0 l/m 0,6 km/h (0 Bft) O-SO 112 9,0 C 9,6 C 1,6 km/h (1 Bft)
11.06.2013 02:50 9,6 C 96 % 1016,6 hPa 0,7 l/m 0,8 km/h (0 Bft) S-SO 157 9,0 C 9,6 C 5,1 km/h (1 Bft)
11.06.2013 02:55 9,6 C 96 % 1016,6 hPa 0,7 l/m 0,6 km/h (0 Bft) O-SO 112 9,0 C 9,6 C 0,0 km/h (0 Bft)
11.06.2013 03:00 9,6 C 96 % 1016,6 hPa 0,0 l/m 0,3 km/h (0 Bft) O-SO 112 9,0 C 9,6 C 0,0 km/h (0 Bft)
11.06.2013 03:05 9,6 C 96 % 1016,6 hPa 0,0 l/m 0,0 km/h (0 Bft) O-SO 112 9,0 C 9,6 C 0,0 km/h (0 Bft)
11.06.2013 03:10 9,6 C 96 % 1016,6 hPa 0,0 l/m 0,0 km/h (0 Bft) S 180 9,0 C 9,6 C 0,0 km/h (0 Bft)
11.06.2013 03:15 9,7 C 96 % 1016,6 hPa 0,0 l/m 0,3 km/h (0 Bft) SO 135 9,1 C 9,6 C 0,0 km/h (0 Bft)
11.06.2013 03:20 9,6 C 96 % 1016,7 hPa 0,0 l/m 0,3 km/h (0 Bft) SO 135 9,0 C 9,6 C 0,0 km/h (0 Bft)
11.06.2013 03:25 9,6 C 96 % 1016,7 hPa 0,0 l/m 0,0 km/h (0 Bft) S 180 9,0 C 9,6 C 0,0 km/h (0 Bft)
11.06.2013 03:30 9,6 C 96 % 1016,7 hPa 0,0 l/m 0,0 km/h (0 Bft) O-SO 112 9,0 C 9,6 C 0,0 km/h (0 Bft)
11.06.2013 03:35 9,6 C 96 % 1016,7 hPa 0,0 l/m 0,0 km/h (0 Bft) S 180 9,0 C 9,6 C 0,0 km/h (0 Bft)
11.06.2013 03:40 9,6 C 96 % 1016,7 hPa 0,0 l/m 0,0 km/h (0 Bft) NO 45 9,0 C 9,6 C 0,0 km/h (0 Bft)
11.06.2013 03:45 9,6 C 96 % 1016,7 hPa 0,7 l/m 0,0 km/h (0 Bft) S-SW 202 9,0 C 9,6 C 0,0 km/h (0 Bft)
11.06.2013 03:50 9,7 C 96 % 1016,7 hPa 0,0 l/m 0,0 km/h (0 Bft) S-SO 157 9,1 C 9,6 C 0,0 km/h (0 Bft)
11.06.2013 03:55 9,6 C 96 % 1016,7 hPa 0,0 l/m 0,0 km/h (0 Bft) S-SO 157 9,0 C 9,6 C 0,0 km/h (0 Bft)
11.06.2013 04:00 9,7 C 96 % 1016,6 hPa 0,0 l/m 0,6 km/h (0 Bft) S-SW 202 9,1 C 9,6 C 2,1 km/h (1 Bft)
11.06.2013 04:05 9,7 C 96 % 1016,6 hPa 0,0 l/m 0,6 km/h (0 Bft) O-SO 112 9,1 C 9,6 C 0,0 km/h (0 Bft)
11.06.2013 04:10 9,6 C 96 % 1016,6 hPa 0,0 l/m 0,3 km/h (0 Bft) NO 45 9,0 C 9,7 C 0,0 km/h (0 Bft)
11.06.2013 04:15 9,7 C 96 % 1016,6 hPa 0,0 l/m 0,0 km/h (0 Bft) NO 45 9,1 C 9,7 C 0,0 km/h (0 Bft)
11.06.2013 04:20 9,7 C 96 % 1016,7 hPa 0,0 l/m 0,2 km/h (0 Bft) NO 45 9,1 C 9,7 C 0,0 km/h (0 Bft)
11.06.2013 04:25 9,7 C 96 % 1016,7 hPa 0,0 l/m 0,0 km/h (0 Bft) W-SW 247 9,1 C 9,7 C 0,0 km/h (0 Bft)
11.06.2013 04:30 9,7 C 96 % 1016,7 hPa 0,0 l/m 0,0 km/h (0 Bft) W-NW 292 9,1 C 9,7 C 0,0 km/h (0 Bft)
11.06.2013 04:35 9,7 C 96 % 1016,7 hPa 0,0 l/m 0,0 km/h (0 Bft) S-SW 202 9,1 C 9,7 C 0,0 km/h (0 Bft)
11.06.2013 04:40 9,7 C 96 % 1016,5 hPa 0,0 l/m 0,3 km/h (0 Bft) S 180 9,1 C 9,6 C 0,0 km/h (0 Bft)
11.06.2013 04:45 9,7 C 96 % 1016,5 hPa 0,0 l/m 1,0 km/h (0 Bft) S 180 9,1 C 9,6 C 1,9 km/h (1 Bft)
11.06.2013 04:50 9,6 C 96 % 1016,5 hPa 0,0 l/m 1,0 km/h (0 Bft) S 180 9,0 C 9,6 C 0,0 km/h (0 Bft)
11.06.2013 04:55 9,6 C 96 % 1016,5 hPa 0,0 l/m 0,5 km/h (0 Bft) S 180 9,0 C 9,6 C 0,0 km/h (0 Bft)
11.06.2013 05:00 9,6 C 96 % 1016,8 hPa 0,0 l/m 0,0 km/h (0 Bft) O-SO 112 9,0 C 9,6 C 0,0 km/h (0 Bft)
11.06.2013 05:05 9,5 C 96 % 1016,8 hPa 0,0 l/m 0,0 km/h (0 Bft) S-SW 202 8,9 C 9,6 C 0,0 km/h (0 Bft)
11.06.2013 05:10 9,5 C 96 % 1016,8 hPa 0,0 l/m 0,0 km/h (0 Bft) S-SW 202 8,9 C 9,6 C 0,0 km/h (0 Bft)
11.06.2013 05:15 9,5 C 96 % 1016,8 hPa 0,7 l/m 0,0 km/h (0 Bft) O 90 8,9 C 9,6 C 0,0 km/h (0 Bft)
11.06.2013 05:20 9,5 C 96 % 1016,8 hPa 0,0 l/m 0,2 km/h (0 Bft) O 90 8,9 C 9,5 C 0,0 km/h (0 Bft)
11.06.2013 05:25 9,5 C 96 % 1016,8 hPa 0,0 l/m 0,2 km/h (0 Bft) W-SW 247 8,9 C 9,6 C 0,0 km/h (0 Bft)
11.06.2013 05:30 9,5 C 96 % 1016,8 hPa 0,0 l/m 0,0 km/h (0 Bft) SO 135 8,9 C 9,6 C 0,0 km/h (0 Bft)
11.06.2013 05:35 9,5 C 96 % 1016,8 hPa 0,0 l/m 0,0 km/h (0 Bft) W-SW 247 8,9 C 9,6 C 0,0 km/h (0 Bft)
11.06.2013 05:40 9,5 C 96 % 1016,9 hPa 0,0 l/m 0,0 km/h (0 Bft) W 270 8,9 C 9,6 C 0,0 km/h (0 Bft)
11.06.2013 05:45 9,5 C 96 % 1016,9 hPa 0,0 l/m 0,0 km/h (0 Bft) W 270 8,9 C 9,6 C 0,0 km/h (0 Bft)
11.06.2013 05:50 9,5 C 96 % 1016,9 hPa 0,0 l/m 0,0 km/h (0 Bft) W 270 8,9 C 9,5 C 0,0 km/h (0 Bft)
11.06.2013 05:55 9,5 C 96 % 1016,9 hPa 0,0 l/m 0,0 km/h (0 Bft) W-SW 247 8,9 C 9,5 C 0,0 km/h (0 Bft)
11.06.2013 06:00 9,5 C 96 % 1017,1 hPa 0,0 l/m 0,0 km/h (0 Bft) W-SW 247 8,9 C 9,6 C 0,0 km/h (0 Bft)
11.06.2013 06:05 9,6 C 96 % 1017,1 hPa 0,0 l/m 0,0 km/h (0 Bft) W-SW 247 9,0 C 9,6 C 0,0 km/h (0 Bft)
11.06.2013 06:10 9,6 C 96 % 1017,1 hPa 0,0 l/m 0,0 km/h (0 Bft) W-SW 247 9,0 C 9,6 C 0,0 km/h (0 Bft)
11.06.2013 06:15 9,6 C 96 % 1017,1 hPa 0,0 l/m 0,0 km/h (0 Bft) W-SW 247 9,0 C 9,6 C 0,0 km/h (0 Bft)
11.06.2013 06:20 9,6 C 96 % 1017,2 hPa 0,0 l/m 0,0 km/h (0 Bft) W-NW 292 9,0 C 9,6 C 0,0 km/h (0 Bft)
11.06.2013 06:25 9,6 C 96 % 1017,2 hPa 0,0 l/m 0,0 km/h (0 Bft) S 180 9,0 C 9,6 C 0,0 km/h (0 Bft)
11.06.2013 06:30 9,6 C 96 % 1017,2 hPa 0,0 l/m 0,0 km/h (0 Bft) O 90 9,0 C 9,6 C 0,0 km/h (0 Bft)
11.06.2013 06:35 9,7 C 96 % 1017,2 hPa 0,0 l/m 0,6 km/h (0 Bft) S 180 9,1 C 9,6 C 1,6 km/h (1 Bft)
11.06.2013 06:40 9,7 C 96 % 1017,3 hPa 0,0 l/m 0,8 km/h (0 Bft) SO 135 9,1 C 9,6 C 0,0 km/h (0 Bft)
11.06.2013 06:45 9,6 C 96 % 1017,3 hPa 0,7 l/m 0,2 km/h (0 Bft) O-NO 67 9,0 C 9,7 C 0,0 km/h (0 Bft)
11.06.2013 06:50 9,7 C 96 % 1017,3 hPa 0,0 l/m 0,0 km/h (0 Bft) NO 45 9,1 C 9,7 C 0,0 km/h (0 Bft)
11.06.2013 06:55 9,7 C 96 % 1017,3 hPa 0,7 l/m 0,0 km/h (0 Bft) O-NO 67 9,1 C 9,7 C 0,0 km/h (0 Bft)
11.06.2013 07:00 9,7 C 96 % 1017,7 hPa 0,0 l/m 0,0 km/h (0 Bft) NO 45 9,1 C 9,8 C 0,0 km/h (0 Bft)
11.06.2013 07:05 9,8 C 96 % 1017,7 hPa 0,7 l/m 0,3 km/h (0 Bft) W-NW 292 9,2 C 9,8 C 2,1 km/h (1 Bft)
11.06.2013 07:10 9,7 C 96 % 1017,7 hPa 0,0 l/m 0,6 km/h (0 Bft) W-NW 292 9,1 C 9,8 C 0,0 km/h (0 Bft)
11.06.2013 07:15 9,8 C 96 % 1017,7 hPa 0,7 l/m 0,8 km/h (0 Bft) W-SW 247 9,2 C 9,9 C 0,0 km/h (0 Bft)
11.06.2013 07:20 9,8 C 96 % 1017,8 hPa 0,0 l/m 0,6 km/h (0 Bft) O-NO 67 9,2 C 9,9 C 2,1 km/h (1 Bft)
11.06.2013 07:25 9,9 C 96 % 1017,8 hPa 0,7 l/m 1,1 km/h (1 Bft) NO 45 9,3 C 10,0 C 0,0 km/h (0 Bft)
11.06.2013 07:30 10,0 C 96 % 1017,8 hPa 0,0 l/m 1,0 km/h (0 Bft) S 180 9,4 C 10,0 C 0,0 km/h (0 Bft)
11.06.2013 07:35 10,0 C 96 % 1017,8 hPa 0,0 l/m 0,2 km/h (0 Bft) S-SO 157 9,4 C 10,0 C 0,0 km/h (0 Bft)
11.06.2013 07:40 10,0 C 96 % 1017,9 hPa 0,0 l/m 0,0 km/h (0 Bft) SO 135 9,4 C 10,1 C 0,0 km/h (0 Bft)
11.06.2013 07:45 10,2 C 96 % 1017,9 hPa 0,7 l/m 0,2 km/h (0 Bft) S 180 9,6 C 10,2 C 0,0 km/h (0 Bft)
11.06.2013 07:50 10,3 C 96 % 1017,9 hPa 0,0 l/m 0,2 km/h (0 Bft) O-SO 112 9,7 C 10,2 C 0,0 km/h (0 Bft)
11.06.2013 07:55 10,4 C 96 % 1017,9 hPa 0,0 l/m 0,0 km/h (0 Bft) O-SO 112 9,8 C 10,5 C 0,0 km/h (0 Bft)
11.06.2013 08:00 10,6 C 96 % 1018,2 hPa 0,0 l/m 0,0 km/h (0 Bft) S 180 10,0 C 10,6 C 0,0 km/h (0 Bft)
11.06.2013 08:05 10,7 C 96 % 1018,2 hPa 0,0 l/m 0,0 km/h (0 Bft) SO 135 10,1 C 10,6 C 0,0 km/h (0 Bft)
11.06.2013 08:10 10,8 C 96 % 1018,2 hPa 0,0 l/m 0,0 km/h (0 Bft) S-SO 157 10,2 C 10,8 C 0,0 km/h (0 Bft)
11.06.2013 08:15 10,9 C 96 % 1018,2 hPa 0,0 l/m 0,3 km/h (0 Bft) S-SO 157 10,3 C 10,9 C 0,0 km/h (0 Bft)
11.06.2013 08:20 10,9 C 96 % 1018,6 hPa 0,0 l/m 0,3 km/h (0 Bft) NO 45 10,3 C 10,9 C 0,0 km/h (0 Bft)
11.06.2013 08:25 11,1 C 96 % 1018,6 hPa 0,0 l/m 0,0 km/h (0 Bft) S 180 10,5 C 11,1 C 0,0 km/h (0 Bft)
11.06.2013 08:30 11,2 C 96 % 1018,6 hPa 0,0 l/m 0,0 km/h (0 Bft) S-SW 202 10,6 C 11,2 C 0,0 km/h (0 Bft)
11.06.2013 08:35 11,3 C 96 % 1018,6 hPa 0,0 l/m 0,0 km/h (0 Bft) O-NO 67 10,7 C 11,4 C 0,0 km/h (0 Bft)
11.06.2013 08:40 11,5 C 96 % 1018,6 hPa 0,0 l/m 0,0 km/h (0 Bft) SO 135 10,9 C 11,5 C 0,0 km/h (0 Bft)
11.06.2013 08:45 11,5 C 96 % 1018,6 hPa 0,0 l/m 0,0 km/h (0 Bft) S 180 10,9 C 11,7 C 0,0 km/h (0 Bft)
11.06.2013 08:50 11,4 C 96 % 1018,6 hPa 0,0 l/m 0,0 km/h (0 Bft) O-SO 112 10,8 C 11,9 C 0,0 km/h (0 Bft)
11.06.2013 08:55 11,5 C 96 % 1018,6 hPa 0,0 l/m 0,2 km/h (0 Bft) O-SO 112 10,9 C 12,1 C 0,0 km/h (0 Bft)
11.06.2013 09:00 11,5 C 96 % 1018,8 hPa 0,0 l/m 0,0 km/h (0 Bft) S 180 10,9 C 12,4 C 0,0 km/h (0 Bft)
11.06.2013 09:05 11,7 C 96 % 1018,8 hPa 0,0 l/m 0,3 km/h (0 Bft) S 180 11,1 C 12,5 C 0,0 km/h (0 Bft)
11.06.2013 09:10 11,9 C 96 % 1018,8 hPa 0,0 l/m 0,5 km/h (0 Bft) O 90 11,3 C 12,7 C 0,0 km/h (0 Bft)
11.06.2013 09:15 11,7 C 96 % 1018,8 hPa 0,0 l/m 0,2 km/h (0 Bft) NO 45 11,1 C 13,1 C 0,0 km/h (0 Bft)
11.06.2013 09:20 12,0 C 96 % 1019,6 hPa 0,0 l/m 0,0 km/h (0 Bft) W-SW 247 11,4 C 13,4 C 0,0 km/h (0 Bft)
11.06.2013 09:25 12,2 C 96 % 1019,6 hPa 0,0 l/m 0,0 km/h (0 Bft) NW 315 11,6 C 13,7 C 0,0 km/h (0 Bft)
11.06.2013 09:30 12,3 C 96 % 1019,6 hPa 0,0 l/m 0,0 km/h (0 Bft) S 180 11,7 C 13,9 C 0,0 km/h (0 Bft)
11.06.2013 09:35 12,3 C 96 % 1019,6 hPa 0,0 l/m 0,2 km/h (0 Bft) S 180 11,7 C 14,0 C 0,0 km/h (0 Bft)
11.06.2013 09:40 12,2 C 96 % 1019,2 hPa 0,0 l/m 0,3 km/h (0 Bft) S-SW 202 11,6 C 14,0 C 2,6 km/h (1 Bft)
11.06.2013 09:45 12,2 C 96 % 1019,2 hPa 0,0 l/m 0,3 km/h (0 Bft) SW 225 11,6 C 14,0 C 0,0 km/h (0 Bft)
11.06.2013 09:50 12,3 C 96 % 1019,2 hPa 0,0 l/m 0,3 km/h (0 Bft) S-SO 157 11,7 C 13,9 C 0,0 km/h (0 Bft)
11.06.2013 09:55 12,3 C 96 % 1019,2 hPa 0,0 l/m 0,2 km/h (0 Bft) SO 135 11,7 C 14,1 C 2,7 km/h (1 Bft)
11.06.2013 10:00 12,3 C 96 % 1019,4 hPa 0,0 l/m 0,2 km/h (0 Bft) S-SO 157 11,7 C 14,2 C 0,0 km/h (0 Bft)
11.06.2013 10:05 12,5 C 95 % 1019,4 hPa 0,0 l/m 0,2 km/h (0 Bft) N-NW 337 11,7 C 14,3 C 0,0 km/h (0 Bft)
11.06.2013 10:10 12,4 C 95 % 1019,4 hPa 0,0 l/m 0,0 km/h (0 Bft) NW 315 11,6 C 14,4 C 0,0 km/h (0 Bft)
11.06.2013 10:15 12,3 C 95 % 1019,4 hPa 0,0 l/m 0,8 km/h (0 Bft) W-NW 292 11,5 C 14,4 C 1,8 km/h (1 Bft)
11.06.2013 10:20 12,4 C 95 % 1019,8 hPa 0,0 l/m 0,8 km/h (0 Bft) W 270 11,6 C 14,3 C 0,0 km/h (0 Bft)
11.06.2013 10:25 13,0 C 94 % 1019,8 hPa 0,0 l/m 0,2 km/h (0 Bft) O-NO 67 12,1 C 15,1 C 0,0 km/h (0 Bft)
11.06.2013 10:30 14,3 C 94 % 1019,8 hPa 0,0 l/m 0,3 km/h (0 Bft) NO 45 13,3 C 15,9 C 2,9 km/h (1 Bft)
11.06.2013 10:35 14,6 C 93 % 1019,8 hPa 0,0 l/m 0,6 km/h (0 Bft) O 90 13,5 C 17,3 C 0,0 km/h (0 Bft)
11.06.2013 10:40 15,4 C 93 % 1020,3 hPa 0,0 l/m 1,1 km/h (1 Bft) W-SW 247 14,3 C 18,6 C 3,2 km/h (1 Bft)
11.06.2013 10:45 15,0 C 90 % 1020,3 hPa 0,0 l/m 1,3 km/h (1 Bft) NO 45 13,4 C 19,5 C 2,4 km/h (1 Bft)
11.06.2013 10:50 14,8 C 89 % 1020,3 hPa 0,0 l/m 1,4 km/h (1 Bft) O 90 13,0 C 19,9 C 2,1 km/h (1 Bft)
11.06.2013 10:55 15,2 C 88 % 1020,3 hPa 0,0 l/m 1,0 km/h (0 Bft) W-NW 292 13,2 C 19,8 C 0,0 km/h (0 Bft)
11.06.2013 11:00 15,3 C 87 % 1020,4 hPa 0,0 l/m 1,1 km/h (1 Bft) S-SO 157 13,1 C 19,7 C 1,8 km/h (1 Bft)
11.06.2013 11:05 15,2 C 83 % 1020,4 hPa 0,0 l/m 1,0 km/h (0 Bft) W-NW 292 12,3 C 19,4 C 2,3 km/h (1 Bft)
11.06.2013 11:10 15,9 C 81 % 1020,4 hPa 0,0 l/m 1,3 km/h (1 Bft) NW 315 12,6 C 19,8 C 2,6 km/h (1 Bft)
11.06.2013 11:15 15,3 C 83 % 1020,4 hPa 0,0 l/m 2,3 km/h (1 Bft) S-SW 202 12,4 C 19,2 C 2,6 km/h (1 Bft)
11.06.2013 11:20 17,1 C 82 % 1020,6 hPa 0,0 l/m 2,1 km/h (1 Bft) S 180 14,0 C 19,5 C 2,4 km/h (1 Bft)
11.06.2013 11:25 15,3 C 75 % 1020,6 hPa 0,0 l/m 1,3 km/h (1 Bft) W 270 10,9 C 20,5 C 1,6 km/h (1 Bft)
11.06.2013 11:30 14,9 C 81 % 1020,6 hPa 0,0 l/m 1,3 km/h (1 Bft) S-SW 202 11,7 C 20,0 C 2,6 km/h (1 Bft)
11.06.2013 11:35 14,5 C 83 % 1020,6 hPa 0,0 l/m 2,4 km/h (1 Bft) S-SW 202 11,6 C 18,5 C 4,3 km/h (1 Bft)
11.06.2013 11:40 14,4 C 82 % 1020,9 hPa 0,0 l/m 2,7 km/h (1 Bft) W-SW 247 11,4 C 17,7 C 3,5 km/h (1 Bft)
11.06.2013 11:45 14,4 C 85 % 1020,9 hPa 0,0 l/m 2,9 km/h (1 Bft) W 270 11,9 C 17,0 C 2,4 km/h (1 Bft)
11.06.2013 11:50 14,2 C 83 % 1020,9 hPa 0,0 l/m 3,5 km/h (1 Bft) SW 225 11,4 C 16,7 C 4,8 km/h (1 Bft)
11.06.2013 11:55 14,5 C 86 % 1020,9 hPa 0,0 l/m 3,4 km/h (1 Bft) W-SW 247 12,2 C 16,4 C 3,4 km/h (1 Bft)
11.06.2013 12:00 14,5 C 86 % 1020,9 hPa 0,0 l/m 2,6 km/h (1 Bft) S-SO 157 12,2 C 16,5 C 2,7 km/h (1 Bft)
11.06.2013 12:05 14,8 C 87 % 1020,9 hPa 0,0 l/m 1,3 km/h (1 Bft) O-NO 67 12,7 C 16,9 C 1,8 km/h (1 Bft)
11.06.2013 12:10 15,1 C 87 % 1020,9 hPa 0,0 l/m 0,6 km/h (0 Bft) N-NO 22 13,0 C 17,5 C 0,0 km/h (0 Bft)
11.06.2013 12:15 15,5 C 87 % 1020,9 hPa 0,0 l/m 0,3 km/h (0 Bft) O-NO 67 13,3 C 18,3 C 0,0 km/h (0 Bft)
11.06.2013 12:20 15,7 C 87 % 1020,8 hPa 0,0 l/m 0,8 km/h (0 Bft) W 270 13,5 C 18,7 C 2,9 km/h (1 Bft)
11.06.2013 12:25 15,5 C 82 % 1020,8 hPa 0,0 l/m 1,8 km/h (1 Bft) NO 45 12,4 C 18,7 C 2,9 km/h (1 Bft)
11.06.2013 12:30 15,7 C 80 % 1020,8 hPa 0,0 l/m 2,1 km/h (1 Bft) S-SW 202 12,3 C 18,8 C 2,4 km/h (1 Bft)
11.06.2013 12:35 16,3 C 82 % 1020,8 hPa 0,0 l/m 2,3 km/h (1 Bft) N-NO 22 13,2 C 19,0 C 1,9 km/h (1 Bft)
11.06.2013 12:40 16,6 C 83 % 1021,0 hPa 0,0 l/m 1,8 km/h (1 Bft) S 180 13,7 C 19,6 C 0,0 km/h (0 Bft)
11.06.2013 12:45 16,0 C 80 % 1021,0 hPa 0,0 l/m 1,8 km/h (1 Bft) S-SO 157 12,5 C 20,2 C 2,3 km/h (1 Bft)
11.06.2013 12:50 16,7 C 83 % 1021,0 hPa 0,0 l/m 2,1 km/h (1 Bft) W-NW 292 13,8 C 20,1 C 3,1 km/h (1 Bft)
11.06.2013 12:55 16,6 C 83 % 1021,0 hPa 0,0 l/m 1,8 km/h (1 Bft) S-SW 202 13,7 C 19,6 C 2,1 km/h (1 Bft)
11.06.2013 13:00 16,7 C 83 % 1021,1 hPa 0,0 l/m 1,4 km/h (1 Bft) S-SW 202 13,8 C 19,6 C 0,0 km/h (0 Bft)
11.06.2013 13:05 18,6 C 79 % 1021,1 hPa 0,0 l/m 1,6 km/h (1 Bft) NO 45 14,9 C 20,9 C 2,3 km/h (1 Bft)
11.06.2013 13:10 19,0 C 78 % 1021,1 hPa 0,0 l/m 1,3 km/h (1 Bft) W-NW 292 15,1 C 22,1 C 2,3 km/h (1 Bft)
11.06.2013 13:15 19,2 C 76 % 1021,1 hPa 0,0 l/m 1,6 km/h (1 Bft) NO 45 14,9 C 22,4 C 2,1 km/h (1 Bft)
11.06.2013 13:20 19,6 C 77 % 1020,9 hPa 0,0 l/m 1,6 km/h (1 Bft) S-SO 157 15,5 C 22,7 C 1,6 km/h (1 Bft)
11.06.2013 13:25 19,1 C 68 % 1020,9 hPa 0,0 l/m 1,9 km/h (1 Bft) SW 225 13,1 C 23,1 C 0,0 km/h (0 Bft)
11.06.2013 13:30 20,0 C 74 % 1020,9 hPa 0,0 l/m 2,7 km/h (1 Bft) W-NW 292 15,2 C 22,7 C 4,5 km/h (1 Bft)
11.06.2013 13:35 20,3 C 71 % 1020,9 hPa 0,0 l/m 2,6 km/h (1 Bft) NO 45 14,9 C 22,6 C 1,8 km/h (1 Bft)
11.06.2013 13:40 20,2 C 66 % 1021,1 hPa 0,0 l/m 2,7 km/h (1 Bft) W-NW 292 13,6 C 23,1 C 5,0 km/h (1 Bft)
11.06.2013 13:45 18,5 C 61 % 1021,1 hPa 0,0 l/m 3,1 km/h (1 Bft) SW 225 10,8 C 21,8 C 2,1 km/h (1 Bft)
11.06.2013 13:50 17,8 C 59 % 1021,1 hPa 0,0 l/m 2,9 km/h (1 Bft) W-SW 247 9,7 C 21,0 C 4,5 km/h (1 Bft)
11.06.2013 13:55 18,4 C 61 % 1021,1 hPa 0,0 l/m 2,6 km/h (1 Bft) S-SW 202 10,7 C 19,8 C 2,7 km/h (1 Bft)
11.06.2013 14:00 20,2 C 58 % 1021,1 hPa 0,0 l/m 2,6 km/h (1 Bft) W-SW 247 11,7 C 20,4 C 4,3 km/h (1 Bft)
11.06.2013 14:05 18,9 C 51 % 1021,1 hPa 0,0 l/m 2,3 km/h (1 Bft) N-NW 337 8,5 C 21,9 C 2,7 km/h (1 Bft)
11.06.2013 14:10 18,0 C 54 % 1021,1 hPa 0,0 l/m 2,3 km/h (1 Bft) NO 45 8,6 C 21,5 C 3,2 km/h (1 Bft)
11.06.2013 14:15 20,1 C 55 % 1021,1 hPa 0,0 l/m 1,8 km/h (1 Bft) W-NW 292 10,8 C 22,1 C 0,0 km/h (0 Bft)
11.06.2013 14:20 20,5 C 52 % 1021,0 hPa 0,0 l/m 1,8 km/h (1 Bft) N 360 10,3 C 23,1 C 2,7 km/h (1 Bft)
11.06.2013 14:25 21,2 C 50 % 1021,0 hPa 0,0 l/m 2,6 km/h (1 Bft) W-NW 292 10,4 C 23,9 C 4,8 km/h (1 Bft)
11.06.2013 14:30 20,6 C 49 % 1021,0 hPa 0,0 l/m 3,2 km/h (1 Bft) S 180 9,5 C 23,8 C 0,0 km/h (0 Bft)
11.06.2013 14:35 19,0 C 52 % 1021,0 hPa 0,0 l/m 2,6 km/h (1 Bft) S 180 8,9 C 23,1 C 0,0 km/h (0 Bft)
11.06.2013 14:40 18,4 C 55 % 1021,0 hPa 0,0 l/m 1,6 km/h (1 Bft) SW 225 9,2 C 22,1 C 3,9 km/h (1 Bft)
11.06.2013 14:45 17,8 C 59 % 1021,0 hPa 0,0 l/m 2,7 km/h (1 Bft) S-SW 202 9,7 C 20,6 C 6,0 km/h (2 Bft)
11.06.2013 14:50 17,5 C 62 % 1021,0 hPa 0,0 l/m 4,3 km/h (1 Bft) S 180 10,1 C 19,3 C 4,0 km/h (1 Bft)
11.06.2013 14:55 17,4 C 63 % 1021,0 hPa 0,0 l/m 4,5 km/h (1 Bft) SW 225 10,3 C 18,6 C 5,3 km/h (1 Bft)
11.06.2013 15:00 17,5 C 61 % 1020,7 hPa 0,0 l/m 4,0 km/h (1 Bft) W-SW 247 9,9 C 18,3 C 6,4 km/h (2 Bft)
11.06.2013 15:05 17,4 C 59 % 1020,7 hPa 0,0 l/m 3,7 km/h (1 Bft) S-SW 202 9,3 C 18,4 C 5,5 km/h (1 Bft)
11.06.2013 15:10 18,1 C 59 % 1020,7 hPa 0,0 l/m 4,0 km/h (1 Bft) SW 225 10,0 C 18,5 C 3,7 km/h (1 Bft)
11.06.2013 15:15 19,0 C 58 % 1020,7 hPa 0,0 l/m 4,2 km/h (1 Bft) S-SO 157 10,5 C 19,8 C 5,1 km/h (1 Bft)
11.06.2013 15:20 18,6 C 58 % 1020,9 hPa 0,0 l/m 4,3 km/h (1 Bft) S-SW 202 10,2 C 20,0 C 7,2 km/h (2 Bft)
11.06.2013 15:25 18,6 C 57 % 1020,9 hPa 0,0 l/m 4,3 km/h (1 Bft) S 180 9,9 C 20,1 C 4,7 km/h (1 Bft)
11.06.2013 15:30 18,6 C 57 % 1020,9 hPa 0,0 l/m 3,9 km/h (1 Bft) S 180 9,9 C 20,1 C 2,9 km/h (1 Bft)
11.06.2013 15:35 19,5 C 53 % 1020,9 hPa 0,0 l/m 4,2 km/h (1 Bft) SW 225 9,7 C 20,3 C 4,7 km/h (1 Bft)
11.06.2013 15:40 19,7 C 53 % 1021,0 hPa 0,0 l/m 3,7 km/h (1 Bft) SO 135 9,8 C 21,1 C 4,7 km/h (1 Bft)
11.06.2013 15:45 18,7 C 57 % 1021,0 hPa 0,0 l/m 3,7 km/h (1 Bft) S 180 10,0 C 21,1 C 5,0 km/h (1 Bft)
11.06.2013 15:50 18,4 C 56 % 1021,0 hPa 0,0 l/m 4,2 km/h (1 Bft) S 180 9,5 C 20,4 C 2,6 km/h (1 Bft)
11.06.2013 15:55 20,1 C 52 % 1021,0 hPa 0,0 l/m 4,5 km/h (1 Bft) SW 225 9,9 C 21,1 C 7,2 km/h (2 Bft)
11.06.2013 16:00 20,5 C 51 % 1020,8 hPa 0,0 l/m 4,5 km/h (1 Bft) W 270 10,0 C 22,0 C 4,2 km/h (1 Bft)
11.06.2013 16:05 18,5 C 55 % 1020,8 hPa 0,0 l/m 4,8 km/h (1 Bft) W-SW 247 9,3 C 21,6 C 2,9 km/h (1 Bft)
11.06.2013 16:10 18,6 C 55 % 1020,8 hPa 0,0 l/m 4,7 km/h (1 Bft) W-NW 292 9,4 C 21,0 C 4,5 km/h (1 Bft)
11.06.2013 16:15 20,0 C 52 % 1020,8 hPa 0,0 l/m 5,3 km/h (1 Bft) W-NW 292 9,8 C 21,4 C 10,5 km/h (2 Bft)
11.06.2013 16:20 20,1 C 50 % 1021,0 hPa 0,0 l/m 6,1 km/h (2 Bft) W-SW 247 9,3 C 22,0 C 8,2 km/h (2 Bft)
11.06.2013 16:25 18,8 C 55 % 1021,0 hPa 0,0 l/m 6,8 km/h (2 Bft) W-NW 292 9,6 C 21,6 C 5,1 km/h (1 Bft)
11.06.2013 16:30 18,4 C 57 % 1021,0 hPa 0,0 l/m 6,1 km/h (2 Bft) W-NW 292 9,7 C 20,5 C 2,9 km/h (1 Bft)
11.06.2013 16:35 18,1 C 57 % 1021,0 hPa 0,0 l/m 3,5 km/h (1 Bft) W-NW 292 9,4 C 19,9 C 3,4 km/h (1 Bft)
11.06.2013 16:40 17,5 C 58 % 1020,9 hPa 0,0 l/m 2,4 km/h (1 Bft) N-NW 337 9,1 C 19,7 C 2,6 km/h (1 Bft)
11.06.2013 16:45 17,6 C 58 % 1020,9 hPa 0,0 l/m 2,7 km/h (1 Bft) W-NW 292 9,2 C 19,4 C 3,5 km/h (1 Bft)
11.06.2013 16:50 17,7 C 59 % 1020,9 hPa 0,0 l/m 2,4 km/h (1 Bft) N-NO 22 9,6 C 19,6 C 3,7 km/h (1 Bft)
11.06.2013 16:55 17,7 C 58 % 1020,9 hPa 0,0 l/m 2,7 km/h (1 Bft) N 360 9,3 C 20,0 C 7,4 km/h (2 Bft)
11.06.2013 17:00 17,4 C 58 % 1020,9 hPa 0,0 l/m 3,1 km/h (1 Bft) W 270 9,1 C 19,9 C 2,9 km/h (1 Bft)
11.06.2013 17:05 17,1 C 58 % 1020,9 hPa 0,0 l/m 2,9 km/h (1 Bft) NW 315 8,8 C 19,4 C 2,3 km/h (1 Bft)
11.06.2013 17:10 17,4 C 59 % 1020,9 hPa 0,0 l/m 2,6 km/h (1 Bft) N-NW 337 9,3 C 19,6 C 4,8 km/h (1 Bft)
11.06.2013 17:15 16,9 C 60 % 1020,9 hPa 0,0 l/m 2,7 km/h (1 Bft) N-NW 337 9,1 C 19,8 C 5,0 km/h (1 Bft)
11.06.2013 17:20 16,7 C 60 % 1020,9 hPa 0,0 l/m 2,9 km/h (1 Bft) N-NW 337 8,9 C 19,2 C 4,2 km/h (1 Bft)
11.06.2013 17:25 16,6 C 61 % 1020,9 hPa 0,0 l/m 2,6 km/h (1 Bft) N-NW 337 9,0 C 18,4 C 2,4 km/h (1 Bft)
11.06.2013 17:30 16,4 C 61 % 1020,9 hPa 0,0 l/m 2,3 km/h (1 Bft) N-NW 337 8,9 C 18,1 C 2,9 km/h (1 Bft)
11.06.2013 17:35 16,1 C 64 % 1020,9 hPa 0,0 l/m 1,4 km/h (1 Bft) W-NW 292 9,3 C 17,6 C 0,0 km/h (0 Bft)
11.06.2013 17:40 16,1 C 65 % 1020,4 hPa 0,0 l/m 1,0 km/h (0 Bft) N-NW 337 9,5 C 17,6 C 2,3 km/h (1 Bft)
11.06.2013 17:45 16,3 C 63 % 1020,4 hPa 0,0 l/m 0,5 km/h (0 Bft) N-NW 337 9,2 C 17,5 C 1,6 km/h (1 Bft)
11.06.2013 17:50 16,3 C 64 % 1020,4 hPa 0,0 l/m 0,6 km/h (0 Bft) W-NW 292 9,5 C 17,4 C 0,0 km/h (0 Bft)
11.06.2013 17:55 16,4 C 61 % 1020,4 hPa 0,0 l/m 0,6 km/h (0 Bft) N 360 8,9 C 17,6 C 1,8 km/h (1 Bft)
11.06.2013 18:00 16,4 C 62 % 1020,2 hPa 0,0 l/m 0,6 km/h (0 Bft) S-SW 202 9,1 C 17,7 C 2,7 km/h (1 Bft)
11.06.2013 18:05 16,3 C 62 % 1020,2 hPa 0,0 l/m 0,6 km/h (0 Bft) S 180 9,0 C 17,4 C 0,0 km/h (0 Bft)
11.06.2013 18:10 16,2 C 62 % 1020,2 hPa 0,0 l/m 0,5 km/h (0 Bft) W-SW 247 8,9 C 17,2 C 0,0 km/h (0 Bft)
11.06.2013 18:15 16,0 C 65 % 1020,2 hPa 0,0 l/m 0,2 km/h (0 Bft) S-SW 202 9,4 C 17,1 C 1,8 km/h (1 Bft)
11.06.2013 18:20 15,7 C 67 % 1020,2 hPa 0,0 l/m 0,2 km/h (0 Bft) S-SW 202 9,6 C 16,8 C 2,4 km/h (1 Bft)
11.06.2013 18:25 15,3 C 71 % 1020,2 hPa 0,0 l/m 2,9 km/h (1 Bft) S-SW 202 10,1 C 16,1 C 9,2 km/h (2 Bft)
11.06.2013 18:30 14,3 C 73 % 1020,2 hPa 0,0 l/m 5,6 km/h (1 Bft) S-SW 202 9,5 C 15,4 C 11,1 km/h (2 Bft)
11.06.2013 18:35 13,6 C 77 % 1020,2 hPa 0,0 l/m 7,7 km/h (2 Bft) SO 135 9,6 C 12,9 C 5,5 km/h (1 Bft)
11.06.2013 18:40 13,2 C 78 % 1020,6 hPa 0,0 l/m 7,2 km/h (2 Bft) SO 135 9,4 C 12,4 C 16,7 km/h (3 Bft)
11.06.2013 18:45 12,8 C 80 % 1020,6 hPa 0,0 l/m 5,3 km/h (1 Bft) S 180 9,4 C 12,5 C 5,5 km/h (1 Bft)
11.06.2013 18:50 12,6 C 80 % 1020,6 hPa 0,0 l/m 4,3 km/h (1 Bft) O-NO 67 9,2 C 12,1 C 2,3 km/h (1 Bft)
11.06.2013 18:55 12,0 C 86 % 1020,6 hPa 0,7 l/m 2,7 km/h (1 Bft) S 180 9,7 C 11,9 C 2,6 km/h (1 Bft)
11.06.2013 19:00 11,9 C 88 % 1020,9 hPa 0,7 l/m 1,8 km/h (1 Bft) O-SO 112 10,0 C 11,8 C 3,5 km/h (1 Bft)
11.06.2013 19:05 11,9 C 89 % 1020,9 hPa 0,0 l/m 2,1 km/h (1 Bft) O-SO 112 10,1 C 11,8 C 2,6 km/h (1 Bft)
11.06.2013 19:10 12,0 C 89 % 1020,9 hPa 0,0 l/m 2,4 km/h (1 Bft) O-SO 112 10,2 C 11,8 C 2,4 km/h (1 Bft)
11.06.2013 19:15 12,1 C 91 % 1020,9 hPa 0,0 l/m 1,4 km/h (1 Bft) O 90 10,7 C 12,0 C 1,9 km/h (1 Bft)
11.06.2013 19:20 12,0 C 91 % 1021,1 hPa 0,0 l/m 1,1 km/h (1 Bft) O 90 10,6 C 12,1 C 0,0 km/h (0 Bft)
11.06.2013 19:25 11,9 C 92 % 1021,1 hPa 0,0 l/m 1,3 km/h (1 Bft) O-SO 112 10,6 C 12,1 C 1,6 km/h (1 Bft)
11.06.2013 19:30 11,9 C 92 % 1021,1 hPa 0,0 l/m 0,6 km/h (0 Bft) O-SO 112 10,6 C 12,1 C 0,0 km/h (0 Bft)
11.06.2013 19:35 11,8 C 92 % 1021,1 hPa 0,0 l/m 0,6 km/h (0 Bft) O-NO 67 10,5 C 12,1 C 2,1 km/h (1 Bft)
11.06.2013 19:40 11,8 C 93 % 1021,1 hPa 0,0 l/m 1,3 km/h (1 Bft) O-SO 112 10,7 C 12,0 C 0,0 km/h (0 Bft)
11.06.2013 19:45 11,8 C 93 % 1021,1 hPa 0,0 l/m 1,1 km/h (1 Bft) O-NO 67 10,7 C 12,0 C 0,0 km/h (0 Bft)
11.06.2013 19:50 11,7 C 93 % 1021,1 hPa 0,0 l/m 1,0 km/h (0 Bft) NO 45 10,6 C 12,0 C 1,9 km/h (1 Bft)
11.06.2013 19:55 11,7 C 93 % 1021,1 hPa 0,0 l/m 1,1 km/h (1 Bft) NO 45 10,6 C 12,0 C 0,0 km/h (0 Bft)
11.06.2013 20:00 11,7 C 93 % 1021,2 hPa 0,0 l/m 0,5 km/h (0 Bft) NO 45 10,6 C 11,9 C 0,0 km/h (0 Bft)
11.06.2013 20:05 11,6 C 93 % 1021,2 hPa 0,0 l/m 0,6 km/h (0 Bft) O 90 10,5 C 11,9 C 2,1 km/h (1 Bft)
11.06.2013 20:10 11,5 C 93 % 1021,2 hPa 0,0 l/m 1,3 km/h (1 Bft) NO 45 10,4 C 11,8 C 2,4 km/h (1 Bft)
11.06.2013 20:15 11,5 C 94 % 1021,2 hPa 0,0 l/m 1,6 km/h (1 Bft) NO 45 10,6 C 11,8 C 3,4 km/h (1 Bft)
11.06.2013 20:20 11,5 C 94 % 1021,3 hPa 0,0 l/m 1,8 km/h (1 Bft) NO 45 10,6 C 11,8 C 2,1 km/h (1 Bft)
11.06.2013 20:25 11,4 C 94 % 1021,3 hPa 0,0 l/m 1,6 km/h (1 Bft) O 90 10,5 C 11,7 C 1,6 km/h (1 Bft)
11.06.2013 20:30 11,4 C 94 % 1021,3 hPa 0,0 l/m 1,0 km/h (0 Bft) O-NO 67 10,5 C 11,7 C 2,1 km/h (1 Bft)
11.06.2013 20:35 11,3 C 94 % 1021,3 hPa 0,0 l/m 0,6 km/h (0 Bft) O-NO 67 10,4 C 11,7 C 0,0 km/h (0 Bft)
11.06.2013 20:40 11,3 C 94 % 1021,6 hPa 0,0 l/m 0,6 km/h (0 Bft) O 90 10,4 C 11,7 C 0,0 km/h (0 Bft)
11.06.2013 20:45 11,3 C 94 % 1021,6 hPa 0,0 l/m 0,3 km/h (0 Bft) NO 45 10,4 C 11,6 C 1,9 km/h (1 Bft)
11.06.2013 20:50 11,2 C 94 % 1021,6 hPa 0,0 l/m 0,5 km/h (0 Bft) O-SO 112 10,3 C 11,5 C 0,0 km/h (0 Bft)
11.06.2013 20:55 11,2 C 94 % 1021,6 hPa 0,0 l/m 1,6 km/h (1 Bft) NO 45 10,3 C 11,4 C 2,4 km/h (1 Bft)
11.06.2013 21:00 11,1 C 94 % 1021,7 hPa 0,0 l/m 1,6 km/h (1 Bft) O 90 10,2 C 11,4 C 0,0 km/h (0 Bft)
11.06.2013 21:05 11,1 C 94 % 1021,7 hPa 0,0 l/m 1,1 km/h (1 Bft) O 90 10,2 C 11,2 C 1,6 km/h (1 Bft)
11.06.2013 21:10 11,0 C 94 % 1021,7 hPa 0,0 l/m 0,5 km/h (0 Bft) NO 45 10,1 C 11,1 C 0,0 km/h (0 Bft)
11.06.2013 21:15 11,0 C 94 % 1021,7 hPa 0,0 l/m 0,2 km/h (0 Bft) O-NO 67 10,1 C 11,1 C 0,0 km/h (0 Bft)
11.06.2013 21:20 11,0 C 94 % 1021,7 hPa 0,0 l/m 0,2 km/h (0 Bft) NO 45 10,1 C 11,1 C 0,0 km/h (0 Bft)
11.06.2013 21:25 11,0 C 94 % 1021,7 hPa 0,0 l/m 0,0 km/h (0 Bft) N 360 10,1 C 11,1 C 0,0 km/h (0 Bft)
11.06.2013 21:30 11,0 C 94 % 1021,7 hPa 0,0 l/m 0,0 km/h (0 Bft) NO 45 10,1 C 11,1 C 0,0 km/h (0 Bft)
11.06.2013 21:35 11,1 C 94 % 1021,7 hPa 0,0 l/m 0,2 km/h (0 Bft) O 90 10,2 C 11,1 C 0,0 km/h (0 Bft)
11.06.2013 21:40 11,1 C 94 % 1022,0 hPa 0,0 l/m 0,2 km/h (0 Bft) O 90 10,2 C 11,1 C 0,0 km/h (0 Bft)
11.06.2013 21:45 11,1 C 94 % 1022,0 hPa 0,0 l/m 0,2 km/h (0 Bft) O 90 10,2 C 11,2 C 0,0 km/h (0 Bft)
11.06.2013 21:50 11,1 C 94 % 1022,0 hPa 0,0 l/m 0,2 km/h (0 Bft) S-SO 157 10,2 C 11,2 C 0,0 km/h (0 Bft)
11.06.2013 21:55 11,1 C 94 % 1022,0 hPa 0,0 l/m 0,2 km/h (0 Bft) SO 135 10,2 C 11,2 C 0,0 km/h (0 Bft)
11.06.2013 22:00 11,1 C 94 % 1022,1 hPa 0,0 l/m 0,0 km/h (0 Bft) SO 135 10,2 C 11,1 C 0,0 km/h (0 Bft)
11.06.2013 22:05 11,1 C 94 % 1022,1 hPa 0,0 l/m 0,0 km/h (0 Bft) SO 135 10,2 C 11,1 C 0,0 km/h (0 Bft)
11.06.2013 22:10 11,1 C 94 % 1022,1 hPa 0,0 l/m 0,0 km/h (0 Bft) N 360 10,2 C 11,1 C 0,0 km/h (0 Bft)
11.06.2013 22:15 11,1 C 95 % 1022,1 hPa 0,0 l/m 0,0 km/h (0 Bft) N 360 10,3 C 11,1 C 0,0 km/h (0 Bft)
11.06.2013 22:20 11,1 C 95 % 1022,3 hPa 0,0 l/m 0,0 km/h (0 Bft) N 360 10,3 C 11,1 C 0,0 km/h (0 Bft)
11.06.2013 22:25 11,1 C 95 % 1022,3 hPa 0,0 l/m 0,0 km/h (0 Bft) N 360 10,3 C 11,1 C 0,0 km/h (0 Bft)
11.06.2013 22:30 11,0 C 95 % 1022,3 hPa 0,0 l/m 0,0 km/h (0 Bft) N 360 10,2 C 11,1 C 0,0 km/h (0 Bft)
11.06.2013 22:35 10,9 C 95 % 1022,3 hPa 0,0 l/m 0,0 km/h (0 Bft) N 360 10,1 C 11,0 C 0,0 km/h (0 Bft)
11.06.2013 22:40 10,9 C 95 % 1022,1 hPa 0,0 l/m 0,0 km/h (0 Bft) N 360 10,1 C 10,9 C 0,0 km/h (0 Bft)
11.06.2013 22:45 10,8 C 95 % 1022,1 hPa 0,0 l/m 0,0 km/h (0 Bft) N 360 10,0 C 10,8 C 0,0 km/h (0 Bft)
11.06.2013 22:50 10,8 C 95 % 1022,1 hPa 0,0 l/m 0,2 km/h (0 Bft) W-NW 292 10,0 C 10,8 C 0,0 km/h (0 Bft)
11.06.2013 22:55 10,8 C 95 % 1022,1 hPa 0,0 l/m 0,2 km/h (0 Bft) N 360 10,0 C 10,8 C 0,0 km/h (0 Bft)
11.06.2013 23:00 10,8 C 95 % 1022,2 hPa 0,0 l/m 0,0 km/h (0 Bft) N-NO 22 10,0 C 10,7 C 0,0 km/h (0 Bft)
11.06.2013 23:05 10,8 C 95 % 1022,2 hPa 0,0 l/m 0,0 km/h (0 Bft) NO 45 10,0 C 10,7 C 0,0 km/h (0 Bft)
11.06.2013 23:10 10,7 C 95 % 1022,2 hPa 0,0 l/m 0,0 km/h (0 Bft) NO 45 9,9 C 10,7 C 0,0 km/h (0 Bft)
11.06.2013 23:15 10,7 C 95 % 1022,2 hPa 0,0 l/m 0,5 km/h (0 Bft) SO 135 9,9 C 10,8 C 0,0 km/h (0 Bft)
11.06.2013 23:20 10,7 C 95 % 1022,2 hPa 0,0 l/m 0,5 km/h (0 Bft) O-SO 112 9,9 C 10,8 C 0,0 km/h (0 Bft)
11.06.2013 23:25 10,7 C 95 % 1022,2 hPa 0,0 l/m 0,2 km/h (0 Bft) S-SO 157 9,9 C 10,7 C 1,6 km/h (1 Bft)
11.06.2013 23:30 10,7 C 95 % 1022,2 hPa 0,0 l/m 0,2 km/h (0 Bft) SO 135 9,9 C 10,7 C 0,0 km/h (0 Bft)
11.06.2013 23:35 10,6 C 95 % 1022,2 hPa 0,0 l/m 0,2 km/h (0 Bft) S-SO 157 9,8 C 10,7 C 0,0 km/h (0 Bft)
11.06.2013 23:40 10,6 C 95 % 1022,1 hPa 0,0 l/m 0,0 km/h (0 Bft) SO 135 9,8 C 10,6 C 0,0 km/h (0 Bft)
11.06.2013 23:45 10,6 C 95 % 1022,1 hPa 0,0 l/m 0,3 km/h (0 Bft) SO 135 9,8 C 10,6 C 1,9 km/h (1 Bft)
11.06.2013 23:50 10,6 C 95 % 1022,1 hPa 0,0 l/m 0,3 km/h (0 Bft) O-SO 112 9,8 C 10,6 C 0,0 km/h (0 Bft)
11.06.2013 23:55 10,6 C 95 % 1022,1 hPa 0,0 l/m 0,3 km/h (0 Bft) O-SO 112 9,8 C 10,6 C 0,0 km/h (0 Bft)
_ Min-Zeit 06:00 14:30 00:15 - 23:40 - - 14:05 01:35 23:55
Minimum _ 9,5 C 49 % 1016,1 hPa - 0,0 km/h (0 Bft) - - 8,5 C 9,4 C 0,0 km/h (0 Bft)
_ Max-Zeit 14:25 10:00 22:35 18:55 18:35 - - 13:20 14:25 18:40
Maximum _ 21,2 C 96 % 1022,3 hPa 0,7 l/m 7,7 km/h
SO (2 Bft)
- - 15,5 C 23,9 C 16,7 km/h
SO (3 Bft)
Durchschnitt _ 12,8 C 86 % 1019,5 hPa #13,7 l/m 1,4 km/h (1 Bft) S - 10,2 C 13,8 C 1,8 km/h (1 Bft)